Date String (YYYY-MM-DD hh:mm:ss) UTC,Instrument flags,Ambient pressure (hPa),Sample flow (lpm),Bypass flow (lpm),Sample temperature (°C),Ambient temperature (°C),ASC tube jacket temperature (°C),LED temperature (°C),Box temperature (°C),Sample RH (%),Span deviation,Mass concentration (μg/m³),Mass concentration (μg/m³),Mass concentration (μg/m³)
DateTimeUTC,F1_M11,P_M11,Q1_M11,Q2_M11,T1_M11,T2_M11,T3_M11,T4_M11,T5_M11,U1_M11,ZSPAN_M11,X0_M11,X2_M11,X1_M11
2022-12-04 14:00:00,,0827.8,5.01,0.00,22.0,20.7,00.0,31.0,23.8,14.0,0000.0,0008.54,0003.37,0002.67
2022-12-04 14:01:00,,0827.9,5.01,0.00,22.0,20.6,00.0,31.0,23.7,14.0,0000.0,0008.64,0003.37,0002.66
2022-12-04 14:02:00,,0827.8,4.99,0.00,22.0,20.6,00.0,31.0,23.7,14.1,0000.0,0008.62,0003.36,0002.63
2022-12-04 14:03:00,,0827.9,4.98,0.00,22.0,20.6,00.0,31.0,23.7,14.3,0000.0,0008.60,0003.39,0002.63
2022-12-04 14:04:00,,0828.0,5.03,0.00,22.0,20.6,00.0,31.0,23.7,14.2,0000.0,0008.96,0003.40,0002.62
2022-12-04 14:05:00,,0827.9,4.99,0.00,22.0,20.6,00.0,31.0,23.8,14.2,0000.0,0009.43,0003.39,0002.61
2022-12-04 14:06:00,,0827.9,5.01,0.00,22.0,20.6,00.0,31.0,23.8,14.2,0000.0,0009.35,0003.41,0002.61
2022-12-04 14:07:00,,0827.9,5.01,0.00,22.0,20.6,00.0,31.0,23.8,14.6,0000.0,0009.51,0003.41,0002.61
2022-12-04 14:08:00,,0827.9,4.99,0.00,22.0,20.6,00.0,31.0,23.9,14.8,0000.0,0009.61,0003.42,0002.61
2022-12-04 14:09:00,,0827.8,5.00,0.00,22.0,20.7,00.0,31.0,23.8,14.8,0000.0,0009.70,0003.42,0002.59
2022-12-04 14:10:00,,0827.8,5.02,0.00,22.0,20.7,00.0,31.0,23.8,14.7,0000.0,0009.34,0003.37,0002.55
2022-12-04 14:11:00,,0827.9,4.99,0.00,22.0,20.7,00.0,31.0,23.8,14.7,0000.0,0008.86,0003.33,0002.51
2022-12-04 14:12:00,,0827.9,5.00,0.00,22.0,20.7,00.0,31.0,23.8,15.0,0000.0,0008.69,0003.31,0002.49
2022-12-04 14:13:00,,0827.9,5.01,0.00,22.1,21.1,00.0,30.9,24.0,15.1,0000.0,0008.90,0003.33,0002.48
2022-12-04 14:14:00,,0827.9,5.00,0.00,22.1,22.0,00.0,30.9,24.2,14.4,0000.0,0009.17,0003.33,0002.46
2022-12-04 14:15:00,,0827.9,4.98,0.00,22.2,22.1,00.0,31.0,24.3,13.9,0000.0,0008.70,0003.31,0002.44
2022-12-04 14:16:00,,0827.9,5.00,0.00,22.3,21.9,00.0,31.0,24.3,13.8,0000.0,0007.91,0003.29,0002.43
2022-12-04 14:17:00,,0828.0,5.00,0.00,22.3,21.7,00.0,31.1,24.3,13.7,0000.0,0007.70,0003.30,0002.41
2022-12-04 14:18:00,,0828.0,5.01,0.00,22.3,21.6,00.0,31.1,24.2,13.7,0000.0,0008.27,0003.27,0002.39
2022-12-04 14:19:00,,0828.0,4.98,0.00,22.3,21.5,00.0,31.1,24.2,13.7,0000.0,0008.34,0003.30,0002.38
2022-12-04 14:20:00,,0828.0,5.01,0.00,22.3,21.3,00.0,31.1,24.2,13.7,0000.0,0008.20,0003.30,0002.39
2022-12-04 14:21:00,,0828.0,5.01,0.00,22.3,21.3,00.0,31.1,24.2,13.8,0000.0,0008.53,0003.33,0002.40
2022-12-04 14:22:00,,0827.9,4.98,0.00,22.3,21.2,00.0,31.1,24.1,14.4,0000.0,0008.70,0003.33,0002.41
2022-12-04 14:23:00,,0827.9,5.00,0.00,22.3,21.1,00.0,31.1,24.1,14.4,0000.0,0008.83,0003.32,0002.42
2022-12-04 14:24:00,,0827.9,5.01,0.00,22.3,21.1,00.0,31.1,24.1,14.2,0000.0,0008.91,0003.30,0002.43
2022-12-04 14:25:00,,0827.8,5.01,0.00,22.3,21.0,00.0,31.1,24.1,14.0,0000.0,0009.44,0003.33,0002.44
2022-12-04 14:26:00,,0827.9,5.00,0.00,22.3,21.0,00.0,31.1,24.1,14.1,0000.0,0009.15,0003.30,0002.45
2022-12-04 14:27:00,,0827.9,4.99,0.00,22.2,21.0,00.0,31.2,24.1,14.0,0000.0,0009.22,0003.31,0002.45
2022-12-04 14:28:00,,0827.9,5.02,0.00,22.2,21.0,00.0,31.2,24.1,14.0,0000.0,0009.36,0003.31,0002.45
2022-12-04 14:29:00,,0828.0,5.01,0.00,22.2,21.0,00.0,31.2,24.1,14.0,0000.0,0008.72,0003.33,0002.49
2022-12-04 14:30:00,,0828.0,4.98,0.00,22.2,21.0,00.0,31.1,24.0,14.1,0000.0,0008.57,0003.33,0002.51
2022-12-04 14:31:00,,0828.0,5.00,0.00,22.2,21.0,00.0,31.1,24.0,14.1,0000.0,0008.63,0003.30,0002.50
2022-12-04 14:32:00,,0827.9,5.00,0.00,22.2,21.0,00.0,31.1,24.0,14.1,0000.0,0008.26,0003.27,0002.49
2022-12-04 14:33:00,,0827.9,5.01,0.00,22.2,21.0,00.0,31.1,24.1,14.0,0000.0,0008.09,0003.30,0002.54
2022-12-04 14:34:00,,0827.8,5.00,0.00,22.2,21.0,00.0,31.1,24.1,13.9,0000.0,0007.89,0003.34,0002.59
2022-12-04 14:35:00,,0827.7,5.00,0.00,22.2,21.0,00.0,31.1,24.1,13.9,0000.0,0007.47,0003.37,0002.63
2022-12-04 14:36:00,,0827.7,5.00,0.00,22.2,21.0,00.0,31.1,24.1,14.0,0000.0,0006.16,0003.35,0002.68
2022-12-04 14:37:00,,0827.7,5.00,0.00,22.2,21.0,00.0,31.2,24.1,14.0,0000.0,0006.14,0003.36,0002.71
2022-12-04 14:38:00,,0827.7,5.00,0.00,22.2,21.0,00.0,31.2,24.1,14.0,0000.0,0006.08,0003.36,0002.74
2022-12-04 14:39:00,,0827.8,5.00,0.00,22.2,21.0,00.0,31.2,24.1,14.0,0000.0,0005.91,0003.38,0002.78
2022-12-04 14:40:00,,0827.8,5.00,0.00,22.2,21.0,00.0,31.2,24.1,14.0,0000.0,0006.63,0003.45,0002.79
2022-12-04 14:41:00,,0827.8,5.00,0.00,22.2,20.9,00.0,31.2,24.1,14.0,0000.0,0006.89,0003.50,0002.83
2022-12-04 14:42:00,,0827.7,5.00,0.00,22.2,20.9,00.0,31.2,24.0,13.9,0000.0,0006.74,0003.54,0002.88
2022-12-04 14:43:00,,0827.7,5.00,0.00,22.2,20.9,00.0,31.1,24.1,13.9,0000.0,0006.75,0003.56,0002.93
2022-12-04 14:44:00,,0827.7,5.00,0.00,22.2,20.9,00.0,31.1,24.1,13.9,0000.0,0006.87,0003.58,0002.95
2022-12-04 14:45:00,,0827.6,5.00,0.00,22.2,20.9,00.0,31.1,24.1,13.9,0000.0,0007.42,0003.63,0002.93
2022-12-04 14:46:00,,0827.5,5.00,0.00,22.2,20.9,00.0,31.1,24.1,14.0,0000.0,0007.65,0003.62,0002.91
2022-12-04 14:47:00,,0827.5,5.00,0.00,22.2,20.9,00.0,31.1,24.1,14.0,0000.0,0007.65,0003.60,0002.89
2022-12-04 14:48:00,,0827.5,5.00,0.00,22.2,21.0,00.0,31.1,24.1,13.8,0000.0,0007.61,0003.61,0002.92
2022-12-04 14:49:00,,0827.6,5.00,0.00,22.2,21.0,00.0,31.1,24.1,13.8,0000.0,0007.66,0003.63,0002.93
2022-12-04 14:50:00,,0827.6,5.00,0.00,22.2,21.0,00.0,31.1,24.0,13.8,0000.0,0007.64,0003.61,0002.90
2022-12-04 14:51:00,,0827.7,4.99,0.00,22.2,20.9,00.0,31.1,24.0,14.1,0000.0,0007.49,0003.59,0002.90
2022-12-04 14:52:00,,0827.7,5.00,0.00,22.2,20.9,00.0,31.1,24.0,14.5,0000.0,0008.26,0003.59,0002.89
2022-12-04 14:53:00,,0827.6,5.00,0.00,22.2,20.9,00.0,31.1,24.0,14.8,0000.0,0008.24,0003.58,0002.88
2022-12-04 14:54:00,,0827.6,5.01,0.00,22.2,20.9,00.0,31.1,23.9,14.6,0000.0,0008.57,0003.59,0002.87
2022-12-04 14:55:00,,0827.6,5.01,0.00,22.2,20.9,00.0,31.1,24.0,14.5,0000.0,0009.29,0003.57,0002.86
2022-12-04 14:56:00,,0827.6,5.01,0.00,22.2,20.9,00.0,31.1,24.0,14.4,0000.0,0009.66,0003.53,0002.87
2022-12-04 14:57:00,,0827.6,5.00,0.00,22.2,20.9,00.0,31.1,24.0,14.3,0000.0,0009.55,0003.53,0002.88
2022-12-04 14:58:00,,0827.6,4.99,0.00,22.2,20.9,00.0,31.1,24.0,14.5,0000.0,0009.56,0003.53,0002.89
2022-12-04 14:59:00,,0827.6,4.99,0.00,22.2,20.9,00.0,31.1,24.0,14.4,0000.0,0009.85,0003.51,0002.88
